Flag for Micronesia Weather past 2 weeks in Kolonia, Ponape, Micronesia

Now
79 °F

Passing clouds.


Feels Like: 83 °F
Forecast: 76 / 85 °F
Wind: 2 mph from Southeast

Location: Pohnpei

Current Time: Oct 23, 2014 at 11:52:36 PM

Latest Report: Oct 23, 2014 at 10:55 PM


Visibility: 15 mi

Pressure: 29.86 "Hg

Humidity: 94%

Dew point: 77 °F

Location of KoloniaLocation

Historic Weather in Kolonia — Graph

°F

Kolonia temperature yesterday

Maximum temperature yesterday: 80 °F (at 10:51 AM)
Minimum temperature yesterday: 75 °F (at 11:55 PM)
Average temperature yesterday: 78 °F

Past Weeks' High & Low Weather Summary

 TemperatureHumidityPressure
High93 °F (Oct 19, 2:52 PM)100% (Oct 13, 1:51 AM)29.97 "Hg (Oct 13, 1:51 AM)
Low72 °F (Oct 15, 2:50 AM)48% (Oct 15, 9:53 AM)29.77 "Hg (Oct 20, 3:55 PM)
Average81 °F86%29.86 "Hg
* Reported Oct 8 10:52 PM — Oct 23 10:55 PM, Kolonia, Weather by CustomWeather, © 2014

Note: Actual official high and low records may vary slightly from our data, if they occured in-between our weather recording intervals... More about our weather records

Advertising

Kolonia weather history for previous 24 hours

 ConditionsComfort  
Time TempWeatherWind HumidityBarometerVisibility
10:55 PM
Oct 23
79 °FPassing clouds.2 mph94%29.86 "Hg15 mi
9:55 PM79 °FMostly cloudy.2 mph94%29.86 "Hg15 mi
7:53 PM81 °FMostly cloudy.2 mph89%29.84 "Hg15 mi
6:50 PM82 °FMostly cloudy.1 mph84%29.83 "Hg15 mi
5:53 PM83 °FCloudy.2 mph78%29.80 "Hg15 mi
4:52 PM85 °FCloudy.3 mph77%29.78 "Hg15 mi
3:57 PM87 °FCloudy.8 mph75%29.78 "Hg15 mi
2:56 PM87 °FCloudy.7 mph76%29.78 "Hg15 mi
1:53 PM85 °FCloudy.6 mph79%29.80 "Hg15 mi
12:54 PM85 °FCloudy.6 mph79%29.83 "Hg15 mi
11:53 AM86 °FCloudy.5 mph76%29.85 "Hg15 mi
10:50 AM87 °FMostly cloudy.8 mph73%29.88 "Hg15 mi
9:55 AM84 °FCloudy.6 mph82%29.89 "Hg15 mi
8:54 AM84 °FCloudy.6 mph82%29.90 "Hg15 mi
7:50 AM79 °FMostly cloudy.3 mph93%29.87 "Hg15 mi
6:50 AM76 °FCloudy.3 mph97%29.86 "Hg15 mi
3:50 AM75 °FClear.5 mph96%29.80 "Hg15 mi
2:50 AM75 °FPassing clouds.5 mph96%29.81 "Hg15 mi
1:50 AM75 °FPassing clouds.3 mph97%29.82 "Hg15 mi
12:54 AM75 °FPassing clouds.6 mph97%29.85 "Hg15 mi
11:55 PM
Oct 22
75 °FPassing clouds.2 mph96%29.87 "Hg15 mi
Weather by CustomWeather, © 2014

See weather overviewHow to use our weather pages